Merida - Lic Manuel Crece, Mexico

3:03 PM EST on September 30, 2016 (GMT -0500)
Lic Manuel Crecencio Rejon

Weather History for MMMD - April, 2014

Change the Weather History Date:

Monday, April 28, 2014

  Actual Average Record
Temperature  
Mean Temperature 90 °F -  
Max Temperature 104 °F 96 °F 108 °F (2015)
Min Temperature 76 °F 72 °F 66 °F (2001)
Cooling Degree Days 25    
Growing Degree Days 40 (Base 50)    
Moisture  
Dew Point 67 °F    
Average Humidity 53    
Maximum Humidity 86    
Minimum Humidity 20    
Precipitation  
Precipitation 0.00 in - - ()
Sea Level Pressure  
Sea Level Pressure 29.74 in    
Wind  
Wind Speed 12 mph ()    
Max Wind Speed 23 mph    
Max Gust Speed 32 mph    
Visibility 5.9 miles    
Events      
Averages and records for this station are not official NWS values.
T = Trace of Precipitation, MM = Missing Value Source: Averaged Metar Reports

Daily Weather History Graph

Daily Weather History Graph

Search for Another Location

Airport or City:

Trip Planner

Search our weather history database for the weather conditions in past years. The results will help you decide how hot, cold, wet, or windy it might be!

Date:

Astronomy

Apr. 28, 2014 Rise Set
Actual Time 6:30 AM CDT 7:22 PM CDT
Civil Twilight 6:07 AM CDT 7:45 PM CDT
Nautical Twilight 5:39 AM CDT 8:12 PM CDT
Astronomical Twilight 5:12 AM CDT 8:40 PM CDT
Moon 6:01 AM CDT (4/28) 7:03 PM CDT (4/28)
Length of Visible Light 13h 38m
Length of Day
12h 52m
Waning Crescent, 0% of the Moon is Illuminated
Apr 28
Waning Crescent
Apr 29
New
May 6
First Quarter
May 14
Full
May 21
Last Quarter

Hourly Weather History & Observations

Time (CDT) Temp. Heat Index Dew Point Humidity Pressure Visibility Wind Dir Wind Speed Gust Speed Precip Events Conditions
12:47 AM 80.6 °F 83.2 °F 68.0 °F 65% 29.82 in 7.0 mi SE 18.4 mph - N/A   Clear
12:50 AM 82 °F - 73 °F 67% 29.81 in 3 mi ESE 8.9 mph - -   Scattered Clouds
1:53 AM 80.6 °F 83.9 °F 69.8 °F 70% 29.79 in 7.0 mi ESE 12.7 mph - N/A   Partly Cloudy
2:53 AM 78.8 °F - 69.8 °F 74% 29.76 in 7.0 mi SE 13.8 mph - N/A   Clear
3:50 AM 79 °F - 73 °F 78% 29.77 in 3 mi ESE 6.7 mph - -   Scattered Clouds
3:54 AM 78.8 °F - 69.8 °F 74% 29.83 in 7.0 mi SE 11.5 mph - N/A   Scattered Clouds
4:54 AM 78.8 °F - 71.6 °F 78% 29.76 in 7.0 mi SE 12.7 mph - N/A   Scattered Clouds
5:53 AM 77.0 °F - 71.6 °F 83% 29.75 in 7.0 mi ESE 15.0 mph - N/A   Clear
6:48 AM 77.0 °F - 71.6 °F 83% 29.79 in 5.0 mi ESE 12.7 mph - N/A   Mostly Cloudy
6:50 AM 77 °F - 74 °F 86% 29.77 in 6 mi SE 4.5 mph - -   Overcast
7:48 AM 78.8 °F - 71.6 °F 78% 29.78 in 5.0 mi SE 17.3 mph - N/A   Scattered Clouds
8:04 AM 78.8 °F - 71.6 °F 78% 29.78 in 6.0 mi SE 12.7 mph - N/A   Mostly Cloudy
8:47 AM 82.4 °F 87.2 °F 71.6 °F 70% 29.78 in 6.0 mi SSE 18.4 mph 29.9 mph N/A   Mostly Cloudy
9:03 AM 84.2 °F 89.6 °F 71.6 °F 66% 29.78 in 7.0 mi SE 13.8 mph 29.9 mph N/A   Mostly Cloudy
9:46 AM 86.0 °F 90.4 °F 69.8 °F 58% 29.78 in 7.0 mi SE 20.7 mph 32.2 mph N/A   Mostly Cloudy
9:50 AM 87 °F - 74 °F 58% 29.79 in 6 mi SE 8.9 mph - -   Haze
10:45 AM 89.6 °F 93.4 °F 68.0 °F 49% 29.77 in 7.0 mi SSE 18.4 mph 29.9 mph N/A   Mostly Cloudy
11:49 AM 93.2 °F 96.2 °F 66.2 °F 41% 29.75 in 7.0 mi SE 11.5 mph 25.3 mph N/A   Scattered Clouds
12:46 PM 96.8 °F 99.0 °F 64.4 °F 34% 29.74 in 7.0 mi SE 11.5 mph 26.5 mph N/A   Scattered Clouds
12:50 PM 98 °F - 74 °F 37% 29.73 in 6 mi SSE 8.9 mph - -   Partly Cloudy
1:47 PM 98.6 °F 100.0 °F 62.6 °F 30% 29.70 in 7.0 mi South 16.1 mph - N/A   Scattered Clouds
2:47 PM 100.4 °F 101.3 °F 60.8 °F 27% 29.67 in 5.0 mi SE 11.5 mph - N/A   Mostly Cloudy
3:39 PM 95.0 °F 99.5 °F 68.0 °F 41% 29.72 in 8.0 mi SSE 11.5 mph - N/A   Mostly Cloudy
3:41 PM 100.4 °F 99.7 °F 57.2 °F 24% 29.68 in 5.0 mi SSE 10.4 mph - N/A   Scattered Clouds
3:50 PM 104 °F - 65 °F 20% 29.66 in 6 mi SSE 4.5 mph - -   Partly Cloudy
4:47 PM 100.4 °F 99.7 °F 57.2 °F 24% 29.63 in 5.0 mi SSE 13.8 mph - N/A   Mostly Cloudy
5:49 PM 100.4 °F 99.7 °F 57.2 °F 24% 29.63 in 7.0 mi SE 12.7 mph - N/A   Mostly Cloudy
6:44 PM 98.6 °F 98.5 °F 59.0 °F 27% 29.66 in 6.0 mi SE 12.7 mph - N/A   Overcast
6:50 PM 93 °F - 58 °F 21% 29.68 in 3 mi ESE 11.2 mph - -   Scattered Clouds
7:53 PM 95.0 °F 94.4 °F 59.0 °F 30% 29.64 in 6.0 mi ESE 13.8 mph - N/A   Mostly Cloudy
8:48 PM 91.4 °F 94.0 °F 66.2 °F 43% 29.67 in 6.0 mi ESE 13.8 mph - N/A   Scattered Clouds
9:46 PM 87.8 °F 92.6 °F 69.8 °F 55% 29.73 in 6.0 mi SE 23.0 mph - N/A   Clear
9:50 PM 87 °F - 60 °F 30% 29.71 in 3 mi ESE 11.2 mph - -   Scattered Clouds
10:47 PM 86.0 °F 90.4 °F 69.8 °F 58% 29.73 in 6.0 mi SE 17.3 mph - N/A   Clear
11:45 PM 84.2 °F 88.4 °F 69.8 °F 62% 29.74 in 6.0 mi SE 23.0 mph - N/A   Clear